Weather in Altay

Russia / Altai Krai     53°00′16″N   83°22′51″E
temp.,
°C
wind,
m/s
gust,
m/s
humid.,
%
clouds,
%
prec.,
mm/h
press.,
hPa
HPBL,
m
7 may, fri
fri701:00+18ssw41054100 0.0 1003161
04:00+18w4851100 0.0 1003127
07:00+16wnw51166100 0.0 1006334
10:00+17wnw5864100 0.0 1009522
13:00+17wnw6757100 0.0 10111020
16:00+20nw7832100 0.0 10132088
19:00+17nw6835100 0.0 10151058
22:00+13wnw3546100 0.0 101872
8 may, sat
sat801:00+11wnw3650100 0.0 101985
04:00+9nw355422 0.0 102080
07:00+9nnw24600 0.0 102185
10:00+15nw22380 0.0 1021811
13:00+18nw33270 0.0 10201422
16:00+20nw45300 0.0 10191865
19:00+19nw35350 0.0 10181844
22:00+15w22460 0.0 101812
9 may, sun
sun901:00+13wsw33510 0.0 101830
04:00+12w33565 0.0 101833
07:00+12w2359100 0.0 101855
10:00+17nnw334498 0.0 1018613
13:00+20n344161 0.0 10171689
16:00+21n5537100 0.0 10162157
19:00+19nne5643100 0.0 1016752
22:00+13ne51151100 0.0 1017299
10 may, mon
mon1001:00+10ene4105047 0.0 1017311
04:00+8ne5115826 0.0 1016269
07:00+7ne51260100 0.0 1015430
10:00+11ne81145100 0.0 1013665
13:00+16ene6834100 0.0 10111156
16:00+19ene6731100 0.0 10091601
19:00+17ne7103998 0.0 10081004
22:00+12ne6114862 0.0 1008366
11 may, tue
tue1101:00+11nne5952100 0.0 1007287
04:00+9nne5105983 0.0 1007283
07:00+8nne486421 0.0 1008327
10:00+13n45505 0.0 1009654
13:00+17nnw44395 0.0 10091334
16:00+18nnw443599 0.0 10101875
19:00+17nw4541100 0.0 1010779
22:00+14wnw4849100 0.0 1011180